Theta_e
317 319 327 325 333 334 336 336 338 341 339 345 347 348 349 349 351 360 357 353 345 340 326 330 337 340 340 341 340 339 339 336 328 325 324 324 324 324 329 331 333 336 338 337 335 335 335 335 334
324 321 323 328 334 336 336 336 339 344 343 345 347 348 348 351 349 356 355 348 345 341 327 329 336 338 340 340 339 339 337 335 327 325 324 323 324 324 328 332 334 336 339 338 335 334 335 335 334
317 322 327 332 336 337 336 334 335 341 342 344 346 347 349 351 351 355 355 348 343 341 340 325 334 336 338 338 338 336 335 328 325 324 323 322 324 324 327 331 333 336 338 338 336 334 334 335 335
321 322 324 331 335 336 334 332 332 335 341 343 345 350 349 348 353 355 353 347 345 341 340 324 331 335 335 336 334 332 329 325 325 324 323 322 323 324 325 329 333 334 336 338 337 336 336 336 335
322 326 326 327 331 334 334 332 330 331 341 342 344 350 351 350 354 356 350 346 343 341 343 324 330 334 331 328 328 327 325 325 324 324 323 323 322 324 326 327 329 333 335 338 338 337 337 337 337
323 324 326 328 329 331 332 331 330 330 333 342 344 344 348 351 354 353 349 347 343 342 346 324 326 328 325 324 324 325 325 325 324 324 323 323 323 323 324 326 327 329 332 335 338 339 338 338 338
325 328 326 327 328 329 329 329 332 331 330 340 343 344 349 351 354 355 354 350 346 343 344 326 324 325 324 324 324 325 325 324 324 323 323 323 323 323 323 324 325 327 329 332 336 338 339 338 338
324 327 327 327 327 327 329 328 330 334 333 340 343 343 349 352 354 354 353 351 348 344 343 340 335 324 325 324 325 325 324 324 324 324 324 324 323 323 323 323 324 325 327 328 331 335 338 339 338
324 326 326 326 326 328 328 328 329 332 336 335 339 346 348 352 354 353 353 351 349 345 342 341 339 337 337 337 325 325 325 324 324 324 324 324 328 325 324 325 330 323 324 325 328 332 335 338 339
324 324 325 327 328 328 327 327 329 329 334 338 340 350 349 352 353 354 354 350 348 345 342 340 340 340 338 339 336 325 326 325 326 327 327 328 340 342 341 338 325 323 323 323 324 328 332 336 345
324 324 327 326 326 326 326 327 327 328 332 336 338 344 347 351 350 352 352 351 348 344 342 341 341 341 340 340 342 336 339 340 336 339 338 335 342 344 340 342 333 325 324 326 330 325 335 344 343
324 324 325 325 324 324 325 326 327 328 331 336 338 344 346 349 349 350 348 348 347 343 342 341 343 345 343 341 342 341 341 342 344 344 345 343 344 345 343 341 342 341 340 337 339 340 343 343 345
324 324 323 323 323 323 324 325 327 328 329 337 334 338 344 347 349 349 347 344 346 344 343 342 346 347 347 346 344 344 342 342 343 346 347 347 347 346 345 343 341 340 340 340 338 336 337 340 341
325 322 324 323 323 323 324 325 325 326 329 333 331 333 340 344 347 348 346 344 345 345 344 344 346 350 349 348 346 345 345 344 344 345 346 347 347 346 346 345 344 342 341 340 339 339 340 341 340
324 325 325 324 324 325 324 325 326 325 328 328 328 328 334 341 345 347 346 348 349 348 346 346 347 349 351 350 349 348 346 346 346 345 346 349 345 347 346 345 344 342 342 340 342 344 344 344 343
325 326 326 327 325 324 324 325 326 325 326 326 326 326 327 334 340 346 348 350 351 352 350 349 348 348 351 348 348 347 346 347 345 347 347 349 348 342 345 345 344 344 343 342 343 345 342 344 342
326 326 326 326 326 325 325 325 326 325 325 326 326 326 326 327 330 339 346 346 351 354 353 352 352 350 350 347 347 346 347 347 347 347 348 348 347 344 343 346 344 345 344 342 342 342 343 342 342
326 327 326 326 327 325 326 325 326 326 326 326 326 326 326 327 330 333 339 344 348 352 355 357 357 355 353 353 351 349 348 347 347 347 348 348 349 345 341 345 345 347 345 340 341 342 343 343 342
326 327 326 326 326 326 326 327 326 327 327 326 326 326 326 327 330 332 334 335 334 344 353 354 355 356 355 354 354 353 350 350 348 346 347 348 350 350 343 347 346 348 346 342 342 344 344 344 342
326 326 325 326 326 327 327 327 328 329 328 328 329 330 330 331 332 334 336 337 337 336 338 344 351 355 356 354 353 351 350 348 348 347 346 349 350 350 348 342 346 346 346 343 346 346 342 342 340
326 326 326 326 328 327 327 328 329 330 330 330 330 330 330 331 333 333 334 336 337 338 338 336 337 349 354 355 353 353 351 349 347 344 346 350 351 349 345 344 343 346 343 337 340 343 342 340 340
327 326 326 326 328 329 327 327 330 331 331 331 330 330 330 330 331 331 332 332 333 336 338 339 333 327 338 351 352 348 348 346 345 343 343 348 350 351 350 344 340 332 341 342 341 345 343 341 341
326 326 326 327 327 328 327 327 327 331 331 331 330 329 328 328 329 329 329 330 330 330 334 338 343 339 329 330 349 348 348 346 344 344 343 346 349 346 350 344 332 322 330 340 337 342 341 343 342
326 326 326 327 328 329 328 328 329 330 332 331 329 327 327 327 327 327 328 328 328 328 330 332 337 342 344 339 337 349 348 352 349 346 344 348 350 353 349 347 328 328 330 330 340 341 343 340 343
326 327 328 329 329 329 328 328 328 329 331 330 328 326 326 326 326 326 326 327 328 328 328 329 331 333 338 342 344 343 345 347 348 351 349 344 347 349 348 344 333 333 325 331 337 341 341 340 340
327 327 328 329 330 329 330 328 331 331 330 328 326 325 324 324 324 323 324 325 326 327 328 328 329 329 330 333 339 343 343 343 344 344 350 350 345 345 342 341 337 325 328 323 335 343 341 340 336
329 328 327 330 330 329 329 330 329 328 327 325 325 324 323 322 322 321 321 322 322 324 326 328 328 329 329 329 330 334 340 341 341 343 345 347 345 347 342 338 337 327 331 323 333 342 338 337 334
326 326 328 330 334 334 330 330 333 329 327 325 324 323 322 321 321 320 320 320 319 320 321 323 325 326 327 328 328 330 332 335 339 340 340 344 345 349 349 340 337 328 330 331 331 339 339 333 338
327 327 327 328 331 336 334 330 330 330 328 325 324 323 321 320 319 319 319 319 318 318 318 319 320 320 323 325 327 327 328 330 331 332 341 339 341 344 346 345 341 342 336 331 331 337 338 335 333
324 324 323 326 333 328 334 332 326 327 325 324 322 320 319 318 318 318 318 318 317 317 317 317 318 318 319 320 321 324 327 327 328 329 330 331 339 338 342 344 344 344 343 339 332 325 334 336 335
Wind_Speed
5 7 5 9 7 8 16 6 5 10 9 10 4 11 13 5 13 4 7 13 18 19 21 22 21 20 20 18 16 14 12 11 9 9 9 9 10 10 10 11 12 11 11 12 12 12 14 16 18
3 7 8 12 10 15 6 6 9 12 15 6 6 2 5 11 8 7 12 18 20 19 21 23 22 20 19 18 16 14 12 11 10 9 8 8 9 9 9 10 10 10 9 10 11 11 12 14 16
3 7 13 9 14 14 7 5 7 8 6 3 4 1 5 6 4 5 12 21 21 19 19 21 22 20 19 17 16 14 13 11 10 9 8 7 7 8 8 8 9 8 8 8 9 10 11 12 14
3 6 12 10 18 15 7 8 4 3 6 1 2 11 6 3 2 4 16 22 19 18 18 20 20 19 17 17 15 14 12 11 10 9 7 7 7 7 7 7 6 7 7 7 7 7 8 9 11
8 12 12 13 18 11 2 2 3 6 2 6 2 10 5 4 7 14 20 20 19 18 17 21 20 19 17 16 15 14 13 11 10 9 7 6 6 5 5 5 5 5 5 5 6 6 6 6 8
12 11 13 14 16 6 1 2 7 8 9 5 8 3 9 9 13 17 18 18 18 18 17 20 20 18 18 16 16 14 12 10 9 8 7 6 5 5 4 4 4 4 4 4 4 4 3 4 5
17 12 15 19 15 9 6 2 10 11 12 7 1 6 11 13 15 16 17 17 17 17 17 20 20 20 19 17 16 14 12 11 10 9 7 6 6 5 4 4 3 3 3 3 4 4 3 2 2
18 15 20 17 14 7 7 10 6 9 11 5 3 5 16 15 17 16 15 16 17 17 16 18 19 20 20 18 17 15 14 12 11 9 9 8 7 6 5 4 4 4 3 4 4 5 5 4 3
11 12 15 17 17 7 5 9 6 6 9 3 9 6 8 13 16 16 15 16 17 17 17 17 17 18 17 16 17 17 15 14 12 11 11 9 6 7 6 7 7 6 5 5 5 6 7 6 5
16 12 19 11 7 4 1 6 5 7 16 9 9 6 8 11 15 17 17 17 19 19 18 18 18 17 17 15 16 18 17 16 15 14 12 9 8 6 7 11 8 8 8 7 7 7 8 8 6
16 17 12 3 6 7 11 9 9 13 16 17 15 17 11 10 15 16 15 15 18 18 18 19 20 21 19 17 15 16 15 14 15 14 14 11 9 10 11 8 10 11 9 8 8 9 8 7 9
16 16 17 15 6 12 17 16 6 16 17 6 11 11 11 11 15 15 14 14 17 19 19 19 20 22 21 16 16 15 16 15 14 16 17 13 15 12 10 9 7 5 9 7 10 8 7 8 10
14 19 12 16 13 17 16 14 16 13 21 2 2 5 10 11 14 14 13 13 15 18 20 20 20 21 21 21 16 16 17 16 15 14 16 15 13 12 11 10 8 9 8 10 10 10 10 10 11
8 18 12 17 18 18 16 19 19 14 18 7 8 12 12 10 15 14 12 12 15 17 18 19 20 20 18 20 19 17 17 17 18 16 16 17 15 14 12 10 10 9 10 11 11 10 9 9 10
11 12 14 17 18 18 16 19 20 18 16 16 15 13 11 14 14 15 12 12 13 15 16 18 18 19 19 19 19 17 16 16 16 17 18 18 20 16 14 11 11 10 11 11 12 10 10 9 11
14 15 16 18 19 20 15 18 21 19 18 15 17 15 13 11 16 17 12 9 11 14 17 18 17 18 18 18 17 16 16 19 17 17 17 19 18 19 16 13 13 11 12 11 11 13 14 12 12
17 14 18 17 13 14 16 19 19 27 23 14 19 17 15 13 17 12 10 12 13 14 16 18 18 18 18 18 18 17 17 17 17 18 18 20 19 18 18 14 14 14 12 12 13 13 16 12 15
15 17 14 16 11 15 17 19 18 10 10 14 20 20 17 14 4 3 3 11 8 14 16 16 17 19 19 17 17 17 17 18 18 19 19 21 20 19 18 16 16 16 13 13 14 16 17 17 13
14 16 15 10 15 11 18 18 20 9 10 13 10 12 13 5 2 2 1 2 9 13 14 16 17 18 20 19 18 17 19 18 19 19 20 20 20 19 20 16 17 17 15 16 15 17 19 17 18
14 17 17 16 13 12 16 18 15 7 10 7 7 7 8 10 8 4 4 3 3 3 9 12 15 17 19 19 20 18 16 17 18 18 21 23 22 20 20 18 17 18 14 17 17 18 18 15 15
17 18 17 17 13 14 16 21 12 10 9 7 6 9 8 8 9 8 9 10 8 7 3 4 12 15 18 20 19 19 19 20 19 21 22 23 22 21 22 20 16 18 19 16 20 18 17 15 17
18 19 16 18 14 14 21 17 22 19 18 15 15 14 12 12 10 11 12 13 14 12 10 8 6 14 21 18 21 22 23 22 23 22 21 22 23 21 20 20 19 20 16 15 16 14 16 17 17
18 18 17 14 17 18 23 17 17 24 19 16 15 14 11 9 9 11 11 12 13 13 13 14 12 8 7 22 20 22 25 24 22 22 21 26 23 21 20 21 20 20 21 17 19 17 20 18 17
13 19 20 15 16 17 21 20 18 20 23 20 15 12 12 11 10 10 9 10 12 12 14 16 16 15 13 8 14 16 23 19 22 23 25 25 22 19 23 22 21 22 22 20 19 21 21 20 17
13 16 12 16 15 19 21 21 19 1 24 22 17 14 12 11 9 9 8 9 10 12 13 14 17 18 18 13 9 8 14 19 25 23 23 28 24 23 23 26 24 22 24 21 19 20 19 19 15
20 19 16 22 16 19 7 15 4 13 21 24 19 15 13 9 9 7 7 8 8 10 11 13 14 15 16 16 14 10 9 12 18 23 25 25 30 28 27 27 27 26 22 20 20 18 17 17 20
22 19 18 26 27 20 15 15 7 8 12 16 18 15 11 9 7 5 6 7 8 9 10 11 12 13 15 15 15 14 13 10 16 23 19 28 39 11 29 28 30 30 25 22 24 21 22 20 21
14 19 13 13 20 25 23 19 14 25 20 17 15 14 9 6 4 4 5 8 9 9 9 11 11 11 11 12 13 13 14 12 11 15 26 23 29 27 23 32 33 33 29 26 26 23 26 28 22
6 8 9 11 4 6 13 10 15 8 14 13 14 10 6 2 2 3 5 7 9 9 10 10 11 11 11 11 11 12 13 14 14 11 14 20 26 27 26 23 26 28 32 29 28 28 29 30 30
5 7 4 4 8 10 7 2 15 10 2 9 6 7 3 1 4 5 6 7 9 10 11 11 12 11 12 12 11 11 11 13 15 15 13 14 21 27 30 28 26 27 30 32 33 33 31 33 32
Wind_Direction
254 309 302 275 248 231 248 131 5 116 140 70 44 18 27 1 12 46 145 148 156 158 165 163 158 159 162 160 160 156 150 144 144 139 131 123 120 118 118 116 114 113 108 98 92 90 76 68 64
225 260 260 271 254 241 143 100 188 68 72 97 87 5 50 70 36 101 136 151 156 158 163 166 161 162 165 166 163 162 159 154 154 147 137 128 121 119 120 119 117 115 116 107 97 93 84 74 69
200 247 268 234 246 272 79 138 88 105 126 154 129 117 37 59 23 145 156 154 156 154 157 169 166 166 167 171 168 167 165 160 159 152 141 132 125 121 124 124 122 119 121 114 104 97 86 78 73
201 225 255 256 260 268 67 94 24 179 137 144 356 97 104 55 116 155 150 152 157 157 160 170 170 168 168 172 173 171 169 167 163 155 149 142 135 129 128 132 135 130 133 129 118 103 87 77 75
223 256 254 237 261 282 100 23 294 282 100 147 187 100 82 122 118 139 146 155 155 159 171 174 172 171 171 174 175 177 175 170 167 164 159 151 142 141 139 140 138 136 139 144 134 123 105 82 75
228 255 252 246 233 240 216 306 269 271 271 116 165 249 86 141 141 146 152 158 160 163 172 175 174 176 173 174 177 177 176 176 176 171 167 159 156 159 157 159 155 152 155 162 159 146 134 103 82
248 241 256 268 281 192 221 309 254 259 235 168 27 234 111 142 156 155 159 162 167 169 169 174 177 180 178 177 178 179 180 181 184 181 175 175 174 180 186 188 188 192 183 179 186 189 183 185 118
243 267 272 259 272 224 116 263 266 258 248 83 96 301 143 155 163 163 166 170 174 172 174 170 174 182 183 182 181 185 186 189 188 186 188 192 193 198 206 216 218 227 222 215 209 213 224 222 220
241 266 252 249 247 221 154 249 173 281 275 204 184 31 100 157 166 169 170 174 178 177 180 178 176 179 178 188 189 191 194 196 194 195 200 201 202 210 215 225 234 249 254 254 247 232 231 242 252
234 232 252 295 235 275 106 264 255 237 216 183 173 119 138 156 170 175 179 180 182 181 183 182 179 186 179 192 203 198 204 205 201 206 208 198 186 216 213 246 247 248 255 261 262 260 252 238 253
226 253 292 306 298 287 287 281 240 257 231 213 196 169 164 172 179 185 186 186 188 188 187 186 181 193 186 187 205 195 208 204 208 208 220 185 209 218 204 248 259 247 247 261 271 266 254 243 251
242 243 276 272 231 242 252 256 288 248 252 237 173 132 160 181 183 190 191 186 187 187 189 188 190 194 184 195 203 200 205 210 210 209 215 203 194 215 211 219 238 247 250 235 240 249 249 248 249
235 264 238 248 249 246 248 258 250 235 247 120 84 180 176 185 187 196 192 187 189 190 193 191 197 199 195 193 209 204 210 216 216 218 219 206 213 216 216 218 217 238 238 243 237 241 243 254 256
240 243 254 242 239 239 239 248 237 245 242 183 221 207 193 198 196 195 197 196 193 193 196 193 199 205 202 202 198 212 214 213 211 217 219 218 215 221 216 219 228 230 237 242 245 245 248 264 257
265 257 242 246 242 244 232 246 241 243 215 218 212 226 220 191 201 198 199 204 201 201 198 199 202 208 204 210 213 210 218 219 224 217 221 223 214 219 210 221 227 235 238 233 238 237 249 257 264
246 245 254 229 216 229 231 244 232 222 232 216 233 223 221 218 206 211 211 209 208 204 203 204 207 212 213 208 217 216 224 220 218 230 224 222 222 210 237 217 228 231 235 236 235 246 250 254 261
227 254 243 258 185 221 208 247 250 209 221 220 236 230 231 221 222 215 195 222 216 209 208 207 208 209 216 220 215 220 220 226 224 226 225 237 224 227 221 226 229 228 232 233 236 243 252 250 261
250 236 231 251 177 226 227 237 252 173 215 225 243 246 244 232 144 359 235 216 207 217 211 214 218 214 213 220 225 219 225 227 227 226 225 227 231 224 237 225 222 229 231 237 241 244 248 258 264
300 286 285 268 252 201 239 228 244 161 228 229 234 238 235 165 135 235 324 257 228 214 213 219 222 221 217 218 221 224 226 230 231 226 228 226 226 223 234 228 231 230 231 238 242 242 261 259 256
260 261 260 258 259 221 247 247 216 157 215 193 196 178 166 167 157 137 89 70 77 190 213 224 228 227 226 223 226 225 232 234 236 230 227 228 226 221 231 237 224 244 241 244 236 245 246 250 242
249 257 260 258 253 224 244 246 170 169 178 174 157 140 139 144 134 106 81 73 67 59 38 265 234 222 233 230 233 233 228 233 231 230 227 231 225 230 234 241 224 233 242 246 250 246 233 232 231
246 247 246 269 248 244 211 245 191 188 192 182 162 155 143 141 118 99 82 69 56 50 43 25 301 249 230 230 235 230 235 235 237 233 233 229 238 225 228 234 242 235 238 233 245 243 230 229 243
259 276 272 238 250 253 248 220 267 180 193 182 163 149 140 126 102 88 79 69 62 51 44 33 28 10 277 225 226 240 243 243 246 237 233 228 238 236 223 233 234 247 242 239 234 233 243 230 229
271 258 250 254 254 246 241 252 220 199 189 175 160 159 144 128 111 91 78 65 55 47 43 35 37 31 22 353 236 245 242 242 244 241 236 226 223 236 227 222 233 241 240 239 234 222 234 221 219
227 246 240 236 229 241 246 245 246 239 189 143 159 159 144 132 112 93 74 59 45 38 37 32 29 27 26 22 3 300 261 260 253 246 239 235 224 222 235 224 232 236 240 239 221 230 224 213 206
250 225 242 251 252 247 314 260 322 86 138 162 159 158 147 129 114 91 75 61 50 37 30 27 24 22 19 17 14 2 297 272 266 257 242 245 236 230 219 240 232 234 236 229 218 218 210 212 204
272 264 237 264 265 272 257 225 150 170 155 162 166 160 148 134 121 94 73 52 41 34 26 25 20 13 11 11 6 3 353 307 258 247 252 242 249 243 235 224 237 233 227 229 216 209 224 208 218
335 315 297 270 262 255 251 244 209 183 182 176 168 162 143 145 118 70 35 28 25 17 9 7 9 7 359 358 359 354 354 349 307 259 256 252 238 241 250 223 238 232 225 224 216 209 218 204 214
314 326 348 305 192 254 283 272 28 150 176 168 170 140 144 141 68 34 12 6 8 4 358 354 354 351 345 347 345 339 341 345 343 315 264 255 254 235 229 230 232 225 222 220 221 208 209 222 209
238 236 247 291 338 318 270 307 350 149 281 134 135 154 140 15 4 358 347 349 352 351 346 342 342 341 332 334 336 332 329 325 326 331 329 300 259 248 242 231 234 229 224 220 221 220 214 218 216